Address 0x17f054034972e976321bfc7de6bb1400badfdfd7 1

Txn Hash Method
Block
From
To
Value [Txn Fee]
0x3919d24473c931bfc2498dc8a09e4e733697773fb9937e7d0d8f7a3cebcdaf110xab07211e138340072022-09-23 8:32:106 days 1 hr ago0x17f054034972e976321bfc7de6bb1400badfdfd7OUT0x2e1d0c56c6913fd6135f887080f7a14123a142a80 AVAX0.0062121125 27.5
0xe4da21f8e169ffadd9cc4e5ef383e21004f2a258b7fc92842d3555be3fe7945f0x4ea4c6b3138339962022-09-23 8:31:486 days 1 hr ago0x17f054034972e976321bfc7de6bb1400badfdfd7OUT0x2e1d0c56c6913fd6135f887080f7a14123a142a80 AVAX0.007572455 27.5
0x5eaaa1c897bd60de1c57eef509add5ff8fc6539355c79a9aea5e1a06095e9c740xab07211e138339732022-09-23 8:31:026 days 1 hr ago0x17f054034972e976321bfc7de6bb1400badfdfd7OUT0x2e1d0c56c6913fd6135f887080f7a14123a142a80 AVAX0.0062124425 27.5
0x2f0d99845e4da90c33be9914602726753b31bb11092c3bb237940a11c8e70aca0xab07211e138339462022-09-23 8:30:086 days 1 hr ago0x17f054034972e976321bfc7de6bb1400badfdfd7OUT0x2e1d0c56c6913fd6135f887080f7a14123a142a80 AVAX0.0062784425 27.5
0xcb3ba628feb84de9a44cb62b9a6b73fb65747cf713cd0287a5e82b484c334a1b0x4ea4c6b3138339192022-09-23 8:29:146 days 1 hr ago0x17f054034972e976321bfc7de6bb1400badfdfd7OUT0x2e1d0c56c6913fd6135f887080f7a14123a142a80 AVAX0.007066455 27.5
0x6fcda4d2fe94f9dcddeff69ced36f448cb8eefde1e853ec1cb81d41087c8115d0xab07211e138338992022-09-23 8:28:346 days 1 hr ago0x17f054034972e976321bfc7de6bb1400badfdfd7OUT0x2e1d0c56c6913fd6135f887080f7a14123a142a80 AVAX0.0062784425 27.5
0x3f6d44b910894426d6aa5e32f5b46685216e1ed361383dfb11dd0f0608308ea40xab07211e138338702022-09-23 8:27:366 days 1 hr ago0x17f054034972e976321bfc7de6bb1400badfdfd7OUT0x2e1d0c56c6913fd6135f887080f7a14123a142a80 AVAX0.0062787725 27.5
0xa4bd01b92b4c4e9b3a9cf9f5a601974048049e17215ec92a9775fb89ec1dd5800xab07211e138338562022-09-23 8:27:086 days 1 hr ago0x17f054034972e976321bfc7de6bb1400badfdfd7OUT0x2e1d0c56c6913fd6135f887080f7a14123a142a80 AVAX0.0062787725 27.5
0x2b055274289ca8d17cd27fd5409943fb816e032d52a34eab799a05d2928527bbTransfer138338342022-09-23 8:26:246 days 1 hr ago0x98ef8d3277666360b1741962b07c2db31ee2605e IN 0x17f054034972e976321bfc7de6bb1400badfdfd70.15 AVAX0.0005565 26.5
0x394a3c8490445205c7d36184508cf5c3c63bbe586981cc362ce6ededcbe6aad40x4ea4c6b3138337852022-09-23 8:24:466 days 1 hr ago0x17f054034972e976321bfc7de6bb1400badfdfd7OUT0x2e1d0c56c6913fd6135f887080f7a14123a142a80 AVAX0.007572785 27.5
0x8123b56aae807661b8fbf02473e3d73ae55176bf5eef965ca28b53ba0fd9b4af0x4ea4c6b3138337652022-09-23 8:24:066 days 1 hr ago0x17f054034972e976321bfc7de6bb1400badfdfd7OUT0x2e1d0c56c6913fd6135f887080f7a14123a142a80 AVAX0.00771595 27.5
0x025e84574dc1f398cb4fbaa4f7abca89e568aa2411d36f240bb523f0683db3a90x4ea4c6b3138337452022-09-23 8:23:266 days 1 hr ago0x17f054034972e976321bfc7de6bb1400badfdfd7OUT0x2e1d0c56c6913fd6135f887080f7a14123a142a80 AVAX0.00771595 27.5
0x88c84f56825af3c83439ccb89f61fcd93bdc1d8c44b395ec6f7289da00fa74cbApprove138337402022-09-23 8:23:166 days 1 hr ago0x17f054034972e976321bfc7de6bb1400badfdfd7OUT0x1fd47761f7cde31ac4c6a5c40a0473781513bcae0 AVAX0.0014724325 27.5
0xb6245e0fecfde64e011e5853a77d8d1e300c51f30b829a63a81b644a33bff633Remove Liquidity138337212022-09-23 8:22:386 days 1 hr ago0x17f054034972e976321bfc7de6bb1400badfdfd7OUT0x2e1d0c56c6913fd6135f887080f7a14123a142a80 AVAX0.0069863475 27.5
0xc12df4345bf4c9947925de4dd53f4a5f23904f1f8ef7e053b38163c74b2ec888Provide Liquidit...138337082022-09-23 8:22:126 days 1 hr ago0x17f054034972e976321bfc7de6bb1400badfdfd7OUT0x2e1d0c56c6913fd6135f887080f7a14123a142a80 AVAX0.002847955 27.5
0xcea9024218dea95a38d0ee228539e4e1b77c5fcd10dac611d174efda0cc3d99cApprove138337022022-09-23 8:22:006 days 1 hr ago0x17f054034972e976321bfc7de6bb1400badfdfd7OUT0xea1b42e2d130898d4d4a4cad7a9395cb9b640f7c0 AVAX0.0012741025 27.5
0x7edad61dbd6cf9c0a929854a9ff1c5406d7584ff865044a96315836baae04a840x8a6655d6137954282022-09-22 11:00:596 days 23 hrs ago0x17f054034972e976321bfc7de6bb1400badfdfd7OUT0x41102fb90121896e52868c0882dcbc74f9ca76060 AVAX0.002890635 27.5
0x46a82558c6fba69a2cb4a3eee4267b9d36ded1ec92732aa5541529e28976a8f30x6549920d137918472022-09-22 9:01:377 days 1 hr ago0x17f054034972e976321bfc7de6bb1400badfdfd7OUT0x2e1d0c56c6913fd6135f887080f7a14123a142a80 AVAX0.0173811 27.5
0xa88944e0cc0ffb54c7e9f8fbb4d5e138bcfe0d773acb8e79ddcdafcf24cbdeebApprove137918382022-09-22 9:01:197 days 1 hr ago0x17f054034972e976321bfc7de6bb1400badfdfd7OUT0x0faf4bf0bf669cad5a3ce24839abc9d143d0cb7e0 AVAX0.001279972355 27.626693913
0x67990089bf92957ddb4a939c874182376c4fa542a8ecff860115cef3a09f79d00x6549920d137918262022-09-22 9:00:557 days 1 hr ago0x17f054034972e976321bfc7de6bb1400badfdfd7OUT0x2e1d0c56c6913fd6135f887080f7a14123a142a80 AVAX0.0173811 27.5
0xe91592a147e30d629a7adaad3167159fa3ad0a285437eba202fa42557f8b56c2Approve137918122022-09-22 9:00:277 days 1 hr ago0x17f054034972e976321bfc7de6bb1400badfdfd7OUT0x85e09719085a65be7ccb86a939418474d5c351d30 AVAX0.00127601302 27.541236325
0x2784195d54a3c28584ec882d89b988ff356939c84edf71657fd482683c0b8b050x6549920d137917572022-09-22 8:58:377 days 1 hr ago0x17f054034972e976321bfc7de6bb1400badfdfd7OUT0x2e1d0c56c6913fd6135f887080f7a14123a142a80 AVAX0.01747551974 27.649388868
0x593a975edd717ebcfcbf5ca7a574557a492d7f5c0e6651ca571fefac0713218fApprove137917462022-09-22 8:58:167 days 1 hr ago0x17f054034972e976321bfc7de6bb1400badfdfd7OUT0x7dad0ddefd94d75c598e791375b3daaae04a05dc0 AVAX0.001278912326 27.60381443
0x26e3b440db6c2dd620912acf6fa474d64a539abe289a3222cee99c75feefb52fMint137917342022-09-22 8:57:517 days 1 hr ago0x17f054034972e976321bfc7de6bb1400badfdfd7OUT0x0faf4bf0bf669cad5a3ce24839abc9d143d0cb7e0 AVAX0.002090540578 27.592067393
0x8ba0a8cdddf4dac7dc04e4da6bcc3279b8918b73f1ca6c222acd3f0c143fa844Mint137917212022-09-22 8:57:257 days 1 hr ago0x17f054034972e976321bfc7de6bb1400badfdfd7OUT0x85e09719085a65be7ccb86a939418474d5c351d30 AVAX0.002083565 27.5
[ Download CSV Export 
Parent Txn Hash Block From To Value
Loading

Contract Name:
0

Compiler Version
0

Optimization Enabled:
0

Other Settings:
-NA-
Block Transaction Gas Used Reward
Age Block Fee Address BC Fee Address Voting Power Jailed Incoming
Block Uncle Number Difficulty Gas Used Reward
Loading